3DDIA FAPL-FAPF

Flight info

Callsign 3DDIA
Flight time 0h 20m
Altitude 8000
Route DCT
Aircraft DA62/L-SDFGRY/C

Departure

Time 2026-05-05 22:00
Airport Pongola Airport (FAPL)

Arrival

Time 2026-05-05 22:20
Airport Piet Retief Airport (FAPF)
Time Latitude Longitude Altitude Speed Heading
2026-05-05 21:53 -27.36667 31.60936 936 ft 0 kts 317°
2026-05-05 21:54 -27.36668 31.60937 936 ft 2 kts 317°
2026-05-05 21:54 -27.36674 31.60941 936 ft 0 kts 349°
2026-05-05 21:56 -27.36670 31.60942 931 ft 3 kts 18°
2026-05-05 21:56 -27.36658 31.60990 932 ft 7 kts 85°
2026-05-05 21:57 -27.36623 31.61035 929 ft 7 kts 14°
2026-05-05 21:57 -27.36582 31.61000 928 ft 8 kts 313°
2026-05-05 21:57 -27.36551 31.60964 928 ft 4 kts 320°
2026-05-05 21:57 -27.36542 31.60956 931 ft 2 kts 321°
2026-05-05 21:58 -27.36507 31.60922 929 ft 13 kts 316°
2026-05-05 21:58 -27.36446 31.60856 930 ft 11 kts 316°
2026-05-05 21:58 -27.36396 31.60800 931 ft 9 kts 314°
2026-05-05 21:58 -27.36363 31.60771 934 ft 0 kts 315°
2026-05-05 21:59 -27.36360 31.60767 934 ft 5 kts 315°
2026-05-05 22:00 -27.36216 31.60614 937 ft 58 kts 316°
2026-05-05 22:00 -27.35812 31.60192 1015 ft 91 kts 319°
2026-05-05 22:00 -27.35322 31.59637 1223 ft 96 kts 315°
2026-05-05 22:00 -27.34914 31.59155 1623 ft 77 kts 315°
2026-05-05 22:01 -27.34506 31.58677 1822 ft 91 kts 318°
2026-05-05 22:01 -27.34028 31.58156 2119 ft 96 kts 315°
2026-05-05 22:01 -27.33560 31.57609 2358 ft 99 kts 315°
2026-05-05 22:01 -27.33043 31.57013 2556 ft 113 kts 316°
2026-05-05 22:02 -27.32604 31.56240 2770 ft 127 kts 281°
2026-05-05 22:02 -27.32466 31.55204 2961 ft 139 kts 279°
2026-05-05 22:02 -27.32364 31.54119 3164 ft 141 kts 265°
2026-05-05 22:02 -27.32474 31.53006 3424 ft 143 kts 272°
2026-05-05 22:03 -27.32208 31.51959 3730 ft 138 kts 299°
2026-05-05 22:03 -27.31776 31.50998 4015 ft 137 kts 303°
2026-05-05 22:03 -27.31338 31.50059 4311 ft 136 kts 303°
2026-05-05 22:03 -27.30894 31.49112 4603 ft 137 kts 303°
2026-05-05 22:04 -27.30446 31.48162 4891 ft 137 kts 303°
2026-05-05 22:04 -27.30005 31.47220 5174 ft 135 kts 304°
2026-05-05 22:04 -27.29575 31.46305 5469 ft 131 kts 302°
2026-05-05 22:04 -27.29149 31.45399 5753 ft 131 kts 303°
2026-05-05 22:05 -27.28723 31.44496 6052 ft 131 kts 303°
2026-05-05 22:05 -27.28293 31.43585 6345 ft 132 kts 304°
2026-05-05 22:05 -27.27872 31.42690 6611 ft 130 kts 304°
2026-05-05 22:05 -27.27447 31.41787 6900 ft 129 kts 303°
2026-05-05 22:06 -27.27027 31.40897 7191 ft 129 kts 303°
2026-05-05 22:06 -27.26610 31.40013 7476 ft 131 kts 303°
2026-05-05 22:06 -27.26186 31.39113 7761 ft 130 kts 303°
2026-05-05 22:06 -27.25762 31.38215 8006 ft 133 kts 303°
2026-05-05 22:07 -27.25299 31.37242 8018 ft 149 kts 303°
2026-05-05 22:07 -27.24793 31.36170 8022 ft 160 kts 302°
2026-05-05 22:07 -27.24260 31.35037 8026 ft 167 kts 302°
2026-05-05 22:07 -27.23709 31.33867 8022 ft 171 kts 302°
2026-05-05 22:08 -27.23149 31.32680 8024 ft 173 kts 302°
2026-05-05 22:08 -27.22584 31.31483 8026 ft 175 kts 302°
2026-05-05 22:08 -27.22012 31.30272 8028 ft 176 kts 302°
2026-05-05 22:08 -27.21226 31.29253 8027 ft 173 kts 326°
2026-05-05 22:09 -27.20162 31.28626 8028 ft 173 kts 335°
2026-05-05 22:09 -27.19065 31.28070 8028 ft 173 kts 336°
2026-05-05 22:09 -27.17968 31.27514 8030 ft 173 kts 335°
2026-05-05 22:09 -27.16872 31.26962 8029 ft 172 kts 335°
2026-05-05 22:10 -27.15777 31.26415 8030 ft 173 kts 336°
2026-05-05 22:10 -27.14677 31.25863 8017 ft 174 kts 336°
2026-05-05 22:10 -27.13573 31.25306 8018 ft 174 kts 336°
2026-05-05 22:10 -27.12469 31.24748 8017 ft 174 kts 336°
2026-05-05 22:11 -27.11361 31.24193 8027 ft 174 kts 336°
2026-05-05 22:11 -27.10365 31.23441 8026 ft 176 kts 315°
2026-05-05 22:11 -27.09733 31.22251 8024 ft 180 kts 297°
2026-05-05 22:11 -27.09297 31.20932 8022 ft 180 kts 294°
2026-05-05 22:12 -27.08974 31.19571 8021 ft 184 kts 280°
2026-05-05 22:12 -27.09028 31.18117 8026 ft 189 kts 268°
2026-05-05 22:12 -27.09304 31.16663 8026 ft 191 kts 263°
2026-05-05 22:12 -27.09645 31.15218 8024 ft 191 kts 263°
2026-05-05 22:13 -27.09973 31.13769 8025 ft 192 kts 261°
2026-05-05 22:13 -27.10235 31.12308 8026 ft 190 kts 267°
2026-05-05 22:13 -27.10435 31.10840 8024 ft 189 kts 268°
2026-05-05 22:13 -27.10626 31.09384 8021 ft 188 kts 268°
2026-05-05 22:14 -27.10776 31.07937 8021 ft 185 kts 275°
2026-05-05 22:14 -27.10640 31.06520 8028 ft 181 kts 290°
2026-05-05 22:14 -27.10175 31.05228 8028 ft 178 kts 302°
2026-05-05 22:14 -27.09592 31.04026 8030 ft 178 kts 303°
2026-05-05 22:15 -27.08990 31.02794 8030 ft 178 kts 303°
2026-05-05 22:15 -27.08412 31.01583 8029 ft 178 kts 302°
2026-05-05 22:15 -27.07821 31.00339 8031 ft 178 kts 302°
2026-05-05 22:15 -27.07239 30.99116 8030 ft 178 kts 302°
2026-05-05 22:16 -27.06657 30.97893 8029 ft 173 kts 302°
2026-05-05 22:16 -27.06232 30.96688 7828 ft 164 kts 289°
2026-05-05 22:16 -27.06100 30.95400 7333 ft 169 kts 275°
2026-05-05 22:16 -27.06168 30.94116 6865 ft 157 kts 270°
2026-05-05 22:17 -27.06249 30.93006 6632 ft 132 kts 276°
2026-05-05 22:17 -27.06132 30.92039 6397 ft 123 kts 294°
2026-05-05 22:17 -27.05813 30.91182 6289 ft 116 kts 306°
2026-05-05 22:17 -27.05333 30.90448 6173 ft 114 kts 317°
2026-05-05 22:18 -27.04806 30.89815 6112 ft 112 kts 314°
2026-05-05 22:18 -27.04300 30.89162 5985 ft 110 kts 315°
2026-05-05 22:18 -27.03792 30.88532 5850 ft 107 kts 320°
2026-05-05 22:18 -27.03253 30.87983 5764 ft 104 kts 321°
2026-05-05 22:19 -27.02726 30.87406 5630 ft 108 kts 319°
2026-05-05 22:19 -27.02221 30.86823 5488 ft 96 kts 320°
2026-05-05 22:19 -27.01743 30.86328 5307 ft 91 kts 319°
2026-05-05 22:19 -27.01312 30.85844 4939 ft 87 kts 323°
2026-05-05 22:20 -27.00888 30.85369 4737 ft 86 kts 321°
2026-05-05 22:20 -27.00427 30.84883 4562 ft 96 kts 314°
2026-05-05 22:20 -26.99980 30.84354 4384 ft 84 kts 318°
2026-05-05 22:20 -26.99665 30.83997 4381 ft 47 kts 311°
2026-05-05 22:21 -26.99531 30.83832 4386 ft 13 kts 294°
2026-05-05 22:21 -26.99537 30.83779 4387 ft 5 kts 233°
2026-05-05 22:21 -26.99554 30.83758 4387 ft 3 kts 228°
2026-05-05 22:21 -26.99566 30.83742 4389 ft 3 kts 230°
2026-05-05 22:22 -26.99585 30.83726 4390 ft 7 kts 205°
2026-05-05 22:22 -26.99609 30.83715 4392 ft 0 kts 201°